Time,TemperatureF,DewpointF,PressureIn,WindDirection,WindDirectionDegrees,WindSpeedMPH,WindSpeedGustMPH,Humidity,HourlyPrecipIn,Conditions,Clouds,dailyrainin,SolarRadiationWatts/m^2,SoftwareType,DateUTC
2013-08-25 00:05:00,64.2,30.0,29.45,North,-999,-999.0,-999.0,5,0.00,,,-99.99,0.0,Linux-Irox,2013-08-25 07:05:00,
2013-08-25 00:15:00,63.9,29.7,29.45,North,-999,-999.0,-999.0,5,0.00,,,-99.99,0.0,Linux-Irox,2013-08-25 07:15:00,
2013-08-25 00:25:00,63.9,29.7,29.45,North,-999,-999.0,-999.0,5,0.00,,,-99.99,0.0,Linux-Irox,2013-08-25 07:25:00,
2013-08-25 00:35:00,63.9,29.7,29.45,North,-999,-999.0,-999.0,5,0.00,,,-99.99,0.0,Linux-Irox,2013-08-25 07:35:00,
2013-08-25 00:45:00,63.7,29.5,29.48,North,-999,-999.0,-999.0,5,0.00,,,-99.99,0.0,Linux-Irox,2013-08-25 07:45:00,
2013-08-25 00:55:00,63.3,29.1,29.48,North,-999,-999.0,-999.0,5,0.00,,,-99.99,0.0,Linux-Irox,2013-08-25 07:55:00,
2013-08-25 01:05:00,62.8,28.6,29.50,North,-999,-999.0,-999.0,5,0.00,,,-99.99,0.0,Linux-Irox,2013-08-25 08:05:00,
2013-08-25 01:15:00,62.1,27.9,29.50,North,-999,-999.0,-999.0,5,0.00,,,-99.99,0.0,Linux-Irox,2013-08-25 08:15:00,
2013-08-25 01:25:00,61.9,28.8,29.50,North,-999,-999.0,-999.0,8,0.00,,,-99.99,0.0,Linux-Irox,2013-08-25 08:25:00,
2013-08-25 01:35:00,61.5,28.4,29.50,North,-999,-999.0,-999.0,8,0.00,,,-99.99,0.0,Linux-Irox,2013-08-25 08:35:00,
2013-08-25 01:45:00,62.2,29.1,29.50,North,-999,-999.0,-999.0,8,0.00,,,-99.99,0.0,Linux-Irox,2013-08-25 08:45:00,
2013-08-25 01:55:00,62.2,29.1,29.50,North,-999,-999.0,-999.0,8,0.00,,,-99.99,0.0,Linux-Irox,2013-08-25 08:55:00,
2013-08-25 02:05:00,61.5,28.4,29.50,North,-999,-999.0,-999.0,8,0.00,,,-99.99,0.0,Linux-Irox,2013-08-25 09:05:00,
2013-08-25 02:15:00,61.0,27.9,29.50,North,-999,-999.0,-999.0,8,0.00,,,-99.99,0.0,Linux-Irox,2013-08-25 09:15:00,
2013-08-25 02:25:00,60.8,27.7,29.50,North,-999,-999.0,-999.0,8,0.00,,,-99.99,0.0,Linux-Irox,2013-08-25 09:25:00,
2013-08-25 02:35:00,60.6,27.5,29.50,North,-999,-999.0,-999.0,8,0.00,,,-99.99,0.0,Linux-Irox,2013-08-25 09:35:00,
2013-08-25 02:45:00,60.8,27.7,29.50,North,-999,-999.0,-999.0,8,0.00,,,-99.99,0.0,Linux-Irox,2013-08-25 09:45:00,
2013-08-25 02:55:00,60.8,27.7,29.50,North,-999,-999.0,-999.0,8,0.00,,,-99.99,0.0,Linux-Irox,2013-08-25 09:55:00,
2013-08-25 03:05:00,60.4,27.3,29.50,North,-999,-999.0,-999.0,8,0.00,,,-99.99,0.0,Linux-Irox,2013-08-25 10:05:00,
2013-08-25 03:15:00,60.3,27.1,29.50,North,-999,-999.0,-999.0,8,0.00,,,-99.99,0.0,Linux-Irox,2013-08-25 10:15:00,
2013-08-25 03:25:00,60.8,27.7,29.50,North,-999,-999.0,-999.0,8,0.00,,,-99.99,0.0,Linux-Irox,2013-08-25 10:25:00,
2013-08-25 03:35:00,60.8,27.7,29.50,North,-999,-999.0,-999.0,8,0.00,,,-99.99,0.0,Linux-Irox,2013-08-25 10:35:00,
2013-08-25 03:45:00,60.4,27.3,29.51,North,-999,-999.0,-999.0,8,0.00,,,-99.99,0.0,Linux-Irox,2013-08-25 10:45:00,
2013-08-25 03:55:00,60.6,27.5,29.51,North,-999,-999.0,-999.0,8,0.00,,,-99.99,0.0,Linux-Irox,2013-08-25 10:55:00,
2013-08-25 04:05:00,60.3,27.1,29.50,North,-999,-999.0,-999.0,8,0.00,,,-99.99,0.0,Linux-Irox,2013-08-25 11:05:00,
2013-08-25 04:15:00,60.3,27.1,29.50,North,-999,-999.0,-999.0,8,0.00,,,-99.99,0.0,Linux-Irox,2013-08-25 11:15:00,
2013-08-25 04:25:00,60.1,27.0,29.49,North,-999,-999.0,-999.0,8,0.00,,,-99.99,0.0,Linux-Irox,2013-08-25 11:25:00,
2013-08-25 04:35:00,59.9,26.8,29.49,North,-999,-999.0,-999.0,8,0.00,,,-99.99,0.0,Linux-Irox,2013-08-25 11:35:00,
2013-08-25 04:45:00,59.7,26.6,29.50,North,-999,-999.0,-999.0,8,0.00,,,-99.99,0.0,Linux-Irox,2013-08-25 11:45:00,
2013-08-25 04:55:00,59.5,26.4,29.50,North,-999,-999.0,-999.0,8,0.00,,,-99.99,0.0,Linux-Irox,2013-08-25 11:55:00,
2013-08-25 05:05:00,59.7,26.6,29.51,North,-999,-999.0,-999.0,8,0.00,,,-99.99,0.0,Linux-Irox,2013-08-25 12:05:00,
2013-08-25 05:15:00,59.7,26.6,29.51,North,-999,-999.0,-999.0,8,0.00,,,-99.99,0.0,Linux-Irox,2013-08-25 12:15:00,
2013-08-25 05:25:00,59.7,26.6,29.51,North,-999,-999.0,-999.0,8,0.00,,,-99.99,0.0,Linux-Irox,2013-08-25 12:25:00,
2013-08-25 05:35:00,59.5,26.4,29.51,North,-999,-999.0,-999.0,8,0.00,,,-99.99,0.0,Linux-Irox,2013-08-25 12:35:00,
2013-08-25 05:45:00,59.4,26.2,29.51,North,-999,-999.0,-999.0,8,0.00,,,-99.99,0.0,Linux-Irox,2013-08-25 12:45:00,
2013-08-25 05:55:00,58.8,26.1,29.51,North,-999,-999.0,-999.0,9,0.00,,,-99.99,0.0,Linux-Irox,2013-08-25 12:55:00,
2013-08-25 06:05:00,58.8,26.1,29.51,North,-999,-999.0,-999.0,9,0.00,,,-99.99,0.0,Linux-Irox,2013-08-25 13:05:00,
2013-08-25 06:15:00,58.8,26.1,29.51,North,-999,-999.0,-999.0,9,0.00,,,-99.99,0.0,Linux-Irox,2013-08-25 13:15:00,
2013-08-25 06:25:00,59.0,25.9,29.52,North,-999,-999.0,-999.0,8,0.00,,,-99.99,0.0,Linux-Irox,2013-08-25 13:25:00,
2013-08-25 06:35:00,59.0,25.9,29.52,North,-999,-999.0,-999.0,8,0.00,,,-99.99,0.0,Linux-Irox,2013-08-25 13:35:00,
2013-08-25 06:45:00,59.2,26.1,29.53,North,-999,-999.0,-999.0,8,0.00,,,-99.99,0.0,Linux-Irox,2013-08-25 13:45:00,
2013-08-25 06:55:00,60.3,27.1,29.53,North,-999,-999.0,-999.0,8,0.00,,,-99.99,0.0,Linux-Irox,2013-08-25 13:55:00,
2013-08-25 07:05:00,60.8,27.7,29.53,North,-999,-999.0,-999.0,8,0.00,,,-99.99,0.0,Linux-Irox,2013-08-25 14:05:00,
2013-08-25 07:15:00,61.9,28.8,29.53,North,-999,-999.0,-999.0,8,0.00,,,-99.99,0.0,Linux-Irox,2013-08-25 14:15:00,
2013-08-25 07:25:00,63.9,30.4,29.53,North,-999,-999.0,-999.0,7,0.00,,,-99.99,0.0,Linux-Irox,2013-08-25 14:25:00,
2013-08-25 07:35:00,68.2,34.0,29.53,North,-999,-999.0,-999.0,5,0.00,,,-99.99,0.0,Linux-Irox,2013-08-25 14:35:00,
2013-08-25 07:45:00,73.9,39.7,29.53,North,-999,-999.0,-999.0,5,0.00,,,-99.99,0.0,Linux-Irox,2013-08-25 14:45:00,
2013-08-25 07:55:00,72.1,37.9,29.53,North,-999,-999.0,-999.0,5,0.00,,,-99.99,0.0,Linux-Irox,2013-08-25 14:55:00,
2013-08-25 08:05:00,70.3,36.1,29.53,North,-999,-999.0,-999.0,5,0.00,,,-99.99,0.0,Linux-Irox,2013-08-25 15:05:00,
2013-08-25 08:15:00,73.4,39.2,29.53,North,-999,-999.0,-999.0,5,0.00,,,-99.99,0.0,Linux-Irox,2013-08-25 15:15:00,
2013-08-25 08:25:00,72.7,38.5,29.51,North,-999,-999.0,-999.0,5,0.00,,,-99.99,0.0,Linux-Irox,2013-08-25 15:25:00,
2013-08-25 08:35:00,72.0,37.8,29.51,North,-999,-999.0,-999.0,5,0.00,,,-99.99,0.0,Linux-Irox,2013-08-25 15:35:00,
2013-08-25 08:45:00,72.7,38.5,29.52,North,-999,-999.0,-999.0,5,0.00,,,-99.99,0.0,Linux-Irox,2013-08-25 15:45:00,
2013-08-25 08:55:00,75.4,41.2,29.52,North,-999,-999.0,-999.0,5,0.00,,,-99.99,0.0,Linux-Irox,2013-08-25 15:55:00,
2013-08-25 09:05:00,74.7,40.5,29.52,North,-999,-999.0,-999.0,5,0.00,,,-99.99,0.0,Linux-Irox,2013-08-25 16:05:00,
2013-08-25 09:15:00,78.8,44.6,29.52,North,-999,-999.0,-999.0,5,0.00,,,-99.99,0.0,Linux-Irox,2013-08-25 16:15:00,
2013-08-25 09:16:00,78.8,44.6,29.52,North,-999,-999.0,-999.0,5,0.00,,,-99.99,0.0,Linux-Irox,2013-08-25 16:16:00,
2013-08-25 09:25:00,81.1,46.9,29.50,North,-999,-999.0,-999.0,5,0.00,,,-99.99,0.0,Linux-Irox,2013-08-25 16:25:00,
2013-08-25 09:31:00,81.5,47.3,29.50,North,-999,-999.0,-999.0,5,0.00,,,-99.99,0.0,Linux-Irox,2013-08-25 16:31:00,
2013-08-25 09:35:00,82.4,48.2,29.50,North,-999,-999.0,-999.0,5,0.00,,,-99.99,0.0,Linux-Irox,2013-08-25 16:35:00,
2013-08-25 09:45:00,84.6,50.4,29.50,North,-999,-999.0,-999.0,5,0.00,,,-99.99,0.0,Linux-Irox,2013-08-25 16:45:00,
2013-08-25 09:46:00,84.6,50.4,29.50,North,-999,-999.0,-999.0,5,0.00,,,-99.99,0.0,Linux-Irox,2013-08-25 16:46:00,
2013-08-25 09:55:00,85.3,51.1,29.50,North,-999,-999.0,-999.0,5,0.00,,,-99.99,0.0,Linux-Irox,2013-08-25 16:55:00,
2013-08-25 10:01:00,83.1,48.9,29.53,North,-999,-999.0,-999.0,5,0.00,,,-99.99,0.0,Linux-Irox,2013-08-25 17:01:00,
2013-08-25 10:05:00,82.0,47.8,29.53,North,-999,-999.0,-999.0,5,0.00,,,-99.99,0.0,Linux-Irox,2013-08-25 17:05:00,
2013-08-25 10:15:00,83.8,49.6,29.53,North,-999,-999.0,-999.0,5,0.00,,,-99.99,0.0,Linux-Irox,2013-08-25 17:15:00,
2013-08-25 10:16:00,83.8,49.6,29.53,North,-999,-999.0,-999.0,5,0.00,,,-99.99,0.0,Linux-Irox,2013-08-25 17:16:00,
2013-08-25 10:25:00,83.1,48.9,29.52,North,-999,-999.0,-999.0,5,0.00,,,-99.99,0.0,Linux-Irox,2013-08-25 17:25:00,
2013-08-25 10:31:00,82.6,48.4,29.52,North,-999,-999.0,-999.0,5,0.00,,,-99.99,0.0,Linux-Irox,2013-08-25 17:31:00,
2013-08-25 10:35:00,80.8,46.6,29.52,North,-999,-999.0,-999.0,5,0.00,,,-99.99,0.0,Linux-Irox,2013-08-25 17:35:00,
2013-08-25 10:45:00,80.6,46.4,29.53,North,-999,-999.0,-999.0,5,0.00,,,-99.99,0.0,Linux-Irox,2013-08-25 17:45:00,
2013-08-25 10:46:00,80.6,46.4,29.53,North,-999,-999.0,-999.0,5,0.00,,,-99.99,0.0,Linux-Irox,2013-08-25 17:46:00,
2013-08-25 10:55:00,80.4,46.2,29.53,North,-999,-999.0,-999.0,5,0.00,,,-99.99,0.0,Linux-Irox,2013-08-25 17:55:00,
2013-08-25 11:01:00,80.1,45.9,29.53,North,-999,-999.0,-999.0,5,0.00,,,-99.99,0.0,Linux-Irox,2013-08-25 18:01:00,
2013-08-25 11:05:00,79.2,45.0,29.53,North,-999,-999.0,-999.0,5,0.00,,,-99.99,0.0,Linux-Irox,2013-08-25 18:05:00,
2013-08-25 11:15:00,80.1,45.9,29.53,North,-999,-999.0,-999.0,5,0.00,,,-99.99,0.0,Linux-Irox,2013-08-25 18:15:00,
2013-08-25 11:16:00,80.1,45.9,29.53,North,-999,-999.0,-999.0,5,0.00,,,-99.99,0.0,Linux-Irox,2013-08-25 18:16:00,
2013-08-25 11:25:00,79.7,45.5,29.51,North,-999,-999.0,-999.0,5,0.00,,,-99.99,0.0,Linux-Irox,2013-08-25 18:25:00,
2013-08-25 11:31:00,80.1,45.9,29.51,North,-999,-999.0,-999.0,5,0.00,,,-99.99,0.0,Linux-Irox,2013-08-25 18:31:00,
2013-08-25 11:35:00,81.0,46.8,29.51,North,-999,-999.0,-999.0,5,0.00,,,-99.99,0.0,Linux-Irox,2013-08-25 18:35:00,
2013-08-25 11:45:00,83.5,49.3,29.51,North,-999,-999.0,-999.0,5,0.00,,,-99.99,0.0,Linux-Irox,2013-08-25 18:45:00,
2013-08-25 11:46:00,83.5,49.3,29.51,North,-999,-999.0,-999.0,5,0.00,,,-99.99,0.0,Linux-Irox,2013-08-25 18:46:00,
2013-08-25 11:55:00,82.6,48.4,29.51,North,-999,-999.0,-999.0,5,0.00,,,-99.99,0.0,Linux-Irox,2013-08-25 18:55:00,
2013-08-25 12:01:00,83.1,48.9,29.53,North,-999,-999.0,-999.0,5,0.00,,,-99.99,0.0,Linux-Irox,2013-08-25 19:01:00,
2013-08-25 12:05:00,83.1,48.9,29.53,North,-999,-999.0,-999.0,5,0.00,,,-99.99,0.0,Linux-Irox,2013-08-25 19:05:00,
2013-08-25 12:15:00,83.8,49.6,29.53,North,-999,-999.0,-999.0,5,0.00,,,-99.99,0.0,Linux-Irox,2013-08-25 19:15:00,
2013-08-25 12:16:00,83.8,49.6,29.53,North,-999,-999.0,-999.0,5,0.00,,,-99.99,0.0,Linux-Irox,2013-08-25 19:16:00,
2013-08-25 12:25:00,84.2,50.0,29.53,North,-999,-999.0,-999.0,5,0.00,,,-99.99,0.0,Linux-Irox,2013-08-25 19:25:00,
2013-08-25 12:31:00,84.0,49.8,29.53,North,-999,-999.0,-999.0,5,0.00,,,-99.99,0.0,Linux-Irox,2013-08-25 19:31:00,
2013-08-25 12:35:00,83.5,49.3,29.53,North,-999,-999.0,-999.0,5,0.00,,,-99.99,0.0,Linux-Irox,2013-08-25 19:35:00,
2013-08-25 12:45:00,84.2,50.0,29.52,North,-999,-999.0,-999.0,5,0.00,,,-99.99,0.0,Linux-Irox,2013-08-25 19:45:00,
2013-08-25 12:46:00,84.2,50.0,29.52,North,-999,-999.0,-999.0,5,0.00,,,-99.99,0.0,Linux-Irox,2013-08-25 19:46:00,
2013-08-25 12:55:00,85.1,50.9,29.52,North,-999,-999.0,-999.0,5,0.00,,,-99.99,0.0,Linux-Irox,2013-08-25 19:55:00,
2013-08-25 13:01:00,84.9,50.7,29.51,North,-999,-999.0,-999.0,5,0.00,,,-99.99,0.0,Linux-Irox,2013-08-25 20:01:00,
2013-08-25 13:05:00,84.4,50.2,29.51,North,-999,-999.0,-999.0,5,0.00,,,-99.99,0.0,Linux-Irox,2013-08-25 20:05:00,
2013-08-25 13:15:00,84.9,50.7,29.51,North,-999,-999.0,-999.0,5,0.00,,,-99.99,0.0,Linux-Irox,2013-08-25 20:15:00,
2013-08-25 13:16:00,84.9,50.7,29.51,North,-999,-999.0,-999.0,5,0.00,,,-99.99,0.0,Linux-Irox,2013-08-25 20:16:00,
2013-08-25 13:25:00,84.6,50.4,29.51,North,-999,-999.0,-999.0,5,0.00,,,-99.99,0.0,Linux-Irox,2013-08-25 20:25:00,
2013-08-25 13:31:00,84.2,50.0,29.51,North,-999,-999.0,-999.0,5,0.00,,,-99.99,0.0,Linux-Irox,2013-08-25 20:31:00,
2013-08-25 13:35:00,84.9,50.7,29.51,North,-999,-999.0,-999.0,5,0.00,,,-99.99,0.0,Linux-Irox,2013-08-25 20:35:00,
2013-08-25 13:45:00,84.7,50.5,29.50,North,-999,-999.0,-999.0,5,0.00,,,-99.99,0.0,Linux-Irox,2013-08-25 20:45:00,
2013-08-25 13:46:00,84.7,50.5,29.50,North,-999,-999.0,-999.0,5,0.00,,,-99.99,0.0,Linux-Irox,2013-08-25 20:46:00,
2013-08-25 13:55:00,85.5,51.3,29.50,North,-999,-999.0,-999.0,5,0.00,,,-99.99,0.0,Linux-Irox,2013-08-25 20:55:00,
2013-08-25 14:01:00,85.3,51.1,29.50,North,-999,-999.0,-999.0,5,0.00,,,-99.99,0.0,Linux-Irox,2013-08-25 21:01:00,
2013-08-25 14:05:00,85.6,51.4,29.50,North,-999,-999.0,-999.0,5,0.00,,,-99.99,0.0,Linux-Irox,2013-08-25 21:05:00,
2013-08-25 14:15:00,85.3,51.1,29.50,North,-999,-999.0,-999.0,5,0.00,,,-99.99,0.0,Linux-Irox,2013-08-25 21:15:00,
2013-08-25 14:16:00,85.3,51.1,29.50,North,-999,-999.0,-999.0,5,0.00,,,-99.99,0.0,Linux-Irox,2013-08-25 21:16:00,
2013-08-25 14:25:00,86.0,51.8,29.49,North,-999,-999.0,-999.0,5,0.00,,,-99.99,0.0,Linux-Irox,2013-08-25 21:25:00,
2013-08-25 14:31:00,86.2,52.0,29.49,North,-999,-999.0,-999.0,5,0.00,,,-99.99,0.0,Linux-Irox,2013-08-25 21:31:00,
2013-08-25 14:35:00,86.7,52.5,29.49,North,-999,-999.0,-999.0,5,0.00,,,-99.99,0.0,Linux-Irox,2013-08-25 21:35:00,
2013-08-25 14:45:00,85.8,51.6,29.48,North,-999,-999.0,-999.0,5,0.00,,,-99.99,0.0,Linux-Irox,2013-08-25 21:45:00,
2013-08-25 14:46:00,85.8,51.6,29.48,North,-999,-999.0,-999.0,5,0.00,,,-99.99,0.0,Linux-Irox,2013-08-25 21:46:00,
2013-08-25 14:55:00,85.3,51.1,29.48,North,-999,-999.0,-999.0,5,0.00,,,-99.99,0.0,Linux-Irox,2013-08-25 21:55:00,
2013-08-25 15:01:00,85.6,51.4,29.49,North,-999,-999.0,-999.0,5,0.00,,,-99.99,0.0,Linux-Irox,2013-08-25 22:01:00,
2013-08-25 15:05:00,85.6,51.4,29.49,North,-999,-999.0,-999.0,5,0.00,,,-99.99,0.0,Linux-Irox,2013-08-25 22:05:00,
2013-08-25 15:15:00,86.7,52.5,29.49,North,-999,-999.0,-999.0,5,0.00,,,-99.99,0.0,Linux-Irox,2013-08-25 22:15:00,
2013-08-25 15:16:00,86.7,52.5,29.49,North,-999,-999.0,-999.0,5,0.00,,,-99.99,0.0,Linux-Irox,2013-08-25 22:16:00,
2013-08-25 15:25:00,85.3,51.1,29.48,North,-999,-999.0,-999.0,5,0.00,,,-99.99,0.0,Linux-Irox,2013-08-25 22:25:00,
2013-08-25 15:31:00,85.3,51.1,29.48,North,-999,-999.0,-999.0,5,0.00,,,-99.99,0.0,Linux-Irox,2013-08-25 22:31:00,
2013-08-25 15:35:00,85.3,51.1,29.48,North,-999,-999.0,-999.0,5,0.00,,,-99.99,0.0,Linux-Irox,2013-08-25 22:35:00,
2013-08-25 15:45:00,85.8,51.6,29.46,North,-999,-999.0,-999.0,5,0.00,,,-99.99,0.0,Linux-Irox,2013-08-25 22:45:00,
2013-08-25 15:46:00,85.8,51.6,29.46,North,-999,-999.0,-999.0,5,0.00,,,-99.99,0.0,Linux-Irox,2013-08-25 22:46:00,
2013-08-25 15:55:00,85.3,51.1,29.46,North,-999,-999.0,-999.0,5,0.00,,,-99.99,0.0,Linux-Irox,2013-08-25 22:55:00,
2013-08-25 16:01:00,84.7,50.5,29.46,North,-999,-999.0,-999.0,5,0.00,,,-99.99,0.0,Linux-Irox,2013-08-25 23:01:00,
2013-08-25 16:05:00,83.8,49.6,29.46,North,-999,-999.0,-999.0,5,0.00,,,-99.99,0.0,Linux-Irox,2013-08-25 23:05:00,
2013-08-25 16:15:00,84.0,49.8,29.46,North,-999,-999.0,-999.0,5,0.00,,,-99.99,0.0,Linux-Irox,2013-08-25 23:15:00,
2013-08-25 16:16:00,84.0,49.8,29.46,North,-999,-999.0,-999.0,5,0.00,,,-99.99,0.0,Linux-Irox,2013-08-25 23:16:00,
2013-08-25 16:25:00,84.0,49.8,29.46,North,-999,-999.0,-999.0,5,0.00,,,-99.99,0.0,Linux-Irox,2013-08-25 23:25:00,
2013-08-25 16:31:00,83.7,49.5,29.46,North,-999,-999.0,-999.0,5,0.00,,,-99.99,0.0,Linux-Irox,2013-08-25 23:31:00,
2013-08-25 16:35:00,83.5,49.3,29.46,North,-999,-999.0,-999.0,5,0.00,,,-99.99,0.0,Linux-Irox,2013-08-25 23:35:00,
2013-08-25 16:45:00,83.3,49.1,29.44,North,-999,-999.0,-999.0,5,0.00,,,-99.99,0.0,Linux-Irox,2013-08-25 23:45:00,
2013-08-25 16:46:00,83.3,49.1,29.44,North,-999,-999.0,-999.0,5,0.00,,,-99.99,0.0,Linux-Irox,2013-08-25 23:46:00,
2013-08-25 16:55:00,83.3,49.1,29.44,North,-999,-999.0,-999.0,5,0.00,,,-99.99,0.0,Linux-Irox,2013-08-25 23:55:00,
2013-08-25 17:01:00,82.9,48.7,29.46,North,-999,-999.0,-999.0,5,0.00,,,-99.99,0.0,Linux-Irox,2013-08-26 00:01:00,
2013-08-25 17:05:00,82.4,48.2,29.46,North,-999,-999.0,-999.0,5,0.00,,,-99.99,0.0,Linux-Irox,2013-08-26 00:05:00,
2013-08-25 17:15:00,82.6,48.4,29.46,North,-999,-999.0,-999.0,5,0.00,,,-99.99,0.0,Linux-Irox,2013-08-26 00:15:00,
2013-08-25 17:16:00,82.6,48.4,29.46,North,-999,-999.0,-999.0,5,0.00,,,-99.99,0.0,Linux-Irox,2013-08-26 00:16:00,
2013-08-25 17:25:00,81.7,47.5,29.47,North,-999,-999.0,-999.0,5,0.00,,,-99.99,0.0,Linux-Irox,2013-08-26 00:25:00,
2013-08-25 17:31:00,81.5,47.3,29.47,North,-999,-999.0,-999.0,5,0.00,,,-99.99,0.0,Linux-Irox,2013-08-26 00:31:00,
2013-08-25 17:35:00,81.1,46.9,29.47,North,-999,-999.0,-999.0,5,0.00,,,-99.99,0.0,Linux-Irox,2013-08-26 00:35:00,
2013-08-25 17:45:00,80.8,46.6,29.45,North,-999,-999.0,-999.0,5,0.00,,,-99.99,0.0,Linux-Irox,2013-08-26 00:45:00,
2013-08-25 17:46:00,80.8,46.6,29.45,North,-999,-999.0,-999.0,5,0.00,,,-99.99,0.0,Linux-Irox,2013-08-26 00:46:00,
2013-08-25 17:55:00,79.9,45.7,29.45,North,-999,-999.0,-999.0,5,0.00,,,-99.99,0.0,Linux-Irox,2013-08-26 00:55:00,
2013-08-25 18:01:00,79.9,45.7,29.46,North,-999,-999.0,-999.0,5,0.00,,,-99.99,0.0,Linux-Irox,2013-08-26 01:01:00,
2013-08-25 18:05:00,79.9,45.7,29.46,North,-999,-999.0,-999.0,5,0.00,,,-99.99,0.0,Linux-Irox,2013-08-26 01:05:00,
2013-08-25 18:15:00,79.2,45.0,29.46,North,-999,-999.0,-999.0,5,0.00,,,-99.99,0.0,Linux-Irox,2013-08-26 01:15:00,
2013-08-25 18:16:00,79.2,45.0,29.46,North,-999,-999.0,-999.0,5,0.00,,,-99.99,0.0,Linux-Irox,2013-08-26 01:16:00,
2013-08-25 18:25:00,78.6,44.4,29.47,North,-999,-999.0,-999.0,5,0.00,,,-99.99,0.0,Linux-Irox,2013-08-26 01:25:00,
2013-08-25 18:31:00,78.3,44.1,29.47,North,-999,-999.0,-999.0,5,0.00,,,-99.99,0.0,Linux-Irox,2013-08-26 01:31:00,
2013-08-25 18:35:00,77.9,43.7,29.47,North,-999,-999.0,-999.0,5,0.00,,,-99.99,0.0,Linux-Irox,2013-08-26 01:35:00,
2013-08-25 18:45:00,77.4,43.2,29.47,North,-999,-999.0,-999.0,5,0.00,,,-99.99,0.0,Linux-Irox,2013-08-26 01:45:00,
2013-08-25 18:55:00,76.6,42.4,29.47,North,-999,-999.0,-999.0,5,0.00,,,-99.99,0.0,Linux-Irox,2013-08-26 01:55:00,
2013-08-25 19:01:00,76.5,42.3,29.47,North,-999,-999.0,-999.0,5,0.00,,,-99.99,0.0,Linux-Irox,2013-08-26 02:01:00,
2013-08-25 19:05:00,76.1,41.9,29.47,North,-999,-999.0,-999.0,5,0.00,,,-99.99,0.0,Linux-Irox,2013-08-26 02:05:00,
2013-08-25 19:15:00,75.6,41.4,29.47,North,-999,-999.0,-999.0,5,0.00,,,-99.99,0.0,Linux-Irox,2013-08-26 02:15:00,
2013-08-25 19:16:00,75.6,41.4,29.47,North,-999,-999.0,-999.0,5,0.00,,,-99.99,0.0,Linux-Irox,2013-08-26 02:16:00,
2013-08-25 19:25:00,74.5,40.3,29.46,North,-999,-999.0,-999.0,5,0.00,,,-99.99,0.0,Linux-Irox,2013-08-26 02:25:00,
2013-08-25 19:31:00,73.9,39.7,29.46,North,-999,-999.0,-999.0,5,0.00,,,-99.99,0.0,Linux-Irox,2013-08-26 02:31:00,
2013-08-25 19:35:00,73.6,39.4,29.46,North,-999,-999.0,-999.0,5,0.00,,,-99.99,0.0,Linux-Irox,2013-08-26 02:35:00,
2013-08-25 19:45:00,73.0,38.8,29.47,North,-999,-999.0,-999.0,5,0.00,,,-99.99,0.0,Linux-Irox,2013-08-26 02:45:00,
2013-08-25 19:46:00,73.0,38.8,29.47,North,-999,-999.0,-999.0,5,0.00,,,-99.99,0.0,Linux-Irox,2013-08-26 02:46:00,
2013-08-25 19:55:00,72.9,38.7,29.47,North,-999,-999.0,-999.0,5,0.00,,,-99.99,0.0,Linux-Irox,2013-08-26 02:55:00,
2013-08-25 20:05:00,73.4,39.2,29.47,North,-999,-999.0,-999.0,5,0.00,,,-99.99,0.0,Linux-Irox,2013-08-26 03:05:00,
2013-08-25 20:15:00,72.3,38.1,29.47,North,-999,-999.0,-999.0,5,0.00,,,-99.99,0.0,Linux-Irox,2013-08-26 03:15:00,
2013-08-25 20:25:00,71.2,37.0,29.47,North,-999,-999.0,-999.0,5,0.00,,,-99.99,0.0,Linux-Irox,2013-08-26 03:25:00,
2013-08-25 20:35:00,70.9,36.7,29.47,North,-999,-999.0,-999.0,5,0.00,,,-99.99,0.0,Linux-Irox,2013-08-26 03:35:00,
2013-08-25 20:45:00,70.3,36.1,29.47,North,-999,-999.0,-999.0,5,0.00,,,-99.99,0.0,Linux-Irox,2013-08-26 03:45:00,
2013-08-25 20:55:00,69.8,35.6,29.47,North,-999,-999.0,-999.0,5,0.00,,,-99.99,0.0,Linux-Irox,2013-08-26 03:55:00,
2013-08-25 21:05:00,69.3,35.1,29.48,North,-999,-999.0,-999.0,5,0.00,,,-99.99,0.0,Linux-Irox,2013-08-26 04:05:00,
2013-08-25 21:15:00,68.7,34.5,29.48,North,-999,-999.0,-999.0,5,0.00,,,-99.99,0.0,Linux-Irox,2013-08-26 04:15:00,
2013-08-25 21:25:00,68.2,34.0,29.49,North,-999,-999.0,-999.0,5,0.00,,,-99.99,0.0,Linux-Irox,2013-08-26 04:25:00,
2013-08-25 21:35:00,68.0,33.8,29.49,North,-999,-999.0,-999.0,5,0.00,,,-99.99,0.0,Linux-Irox,2013-08-26 04:35:00,
2013-08-25 21:45:00,68.0,33.8,29.49,North,-999,-999.0,-999.0,5,0.00,,,-99.99,0.0,Linux-Irox,2013-08-26 04:45:00,
2013-08-25 21:55:00,67.3,33.1,29.49,North,-999,-999.0,-999.0,5,0.00,,,-99.99,0.0,Linux-Irox,2013-08-26 04:55:00,
2013-08-25 22:05:00,66.9,32.7,29.50,North,-999,-999.0,-999.0,5,0.00,,,-99.99,0.0,Linux-Irox,2013-08-26 05:05:00,
2013-08-25 22:15:00,66.6,32.4,29.50,North,-999,-999.0,-999.0,5,0.00,,,-99.99,0.0,Linux-Irox,2013-08-26 05:15:00,
2013-08-25 22:25:00,66.6,32.4,29.51,North,-999,-999.0,-999.0,5,0.00,,,-99.99,0.0,Linux-Irox,2013-08-26 05:25:00,
2013-08-25 22:35:00,66.2,32.0,29.51,North,-999,-999.0,-999.0,5,0.00,,,-99.99,0.0,Linux-Irox,2013-08-26 05:35:00,
2013-08-25 22:45:00,65.5,31.3,29.53,North,-999,-999.0,-999.0,5,0.00,,,-99.99,0.0,Linux-Irox,2013-08-26 05:45:00,
2013-08-25 22:55:00,65.1,30.9,29.53,North,-999,-999.0,-999.0,5,0.00,,,-99.99,0.0,Linux-Irox,2013-08-26 05:55:00,
2013-08-25 23:05:00,65.1,30.9,29.53,North,-999,-999.0,-999.0,5,0.00,,,-99.99,0.0,Linux-Irox,2013-08-26 06:05:00,
2013-08-25 23:15:00,64.9,30.7,29.53,North,-999,-999.0,-999.0,5,0.00,,,-99.99,0.0,Linux-Irox,2013-08-26 06:15:00,
2013-08-25 23:25:00,64.6,30.4,29.53,North,-999,-999.0,-999.0,5,0.00,,,-99.99,0.0,Linux-Irox,2013-08-26 06:25:00,
2013-08-25 23:35:00,64.6,30.4,29.53,North,-999,-999.0,-999.0,5,0.00,,,-99.99,0.0,Linux-Irox,2013-08-26 06:35:00,
2013-08-25 23:45:00,64.2,30.0,29.54,North,-999,-999.0,-999.0,5,0.00,,,-99.99,0.0,Linux-Irox,2013-08-26 06:45:00,
2013-08-25 23:55:00,64.0,29.8,29.54,North,-999,-999.0,-999.0,5,0.00,,,-99.99,0.0,Linux-Irox,2013-08-26 06:55:00,